Location: Blythe
(33.2930°N, 82.2020°W)
Time: 21:47:48

Hubble Space Telescope - Visible Passes

Search period start: 26 November 2015 00:00
Search period end: 06 December 2015 00:00
Orbit: 540 x 544 km, 28.5° (Epoch: 25 November)

Date Brightness Start Highest point End Pass type
(mag) Time Alt. Az. Time Alt. Az. Time Alt. Az.
04 Dec 2.9 06:45:19 10° SW 06:48:46 25° SSE 06:52:13 10° ESE visible
05 Dec 3.6 04:57:47 11° S 04:58:41 11° SSE 05:00:06 10° SE visible
05 Dec 2.6 06:35:51 10° SW 06:39:28 29° SSE 06:43:06 10° ESE visible
